Quillayute, WA
on Saturday, February 23, 2013

Saturday
Previous Day Next Day
Daily Summary
 ActualAverageRecord
Temperature
Mean Temperature °F 42°F  
Max Temperature 50°F 50°F 62°F (2005)
Min Temperature 40°F 35°F 26°F (1987)
Degree Days
Heating Degree Days 20 23  
Month to date heating degree days 480 529  
Since 1 July heating degree days 3588 3734  
Cooling Degree Days 0 0  
Month to date cooling degree days 0 0  
Year to date cooling degree days 0 0  
Moisture
Dew Point 35°F   
Average Humidity 71    
Maximum Humidity 86    
Minimum Humidity 56    
Precipitation
Precipitation 0.20 in 0.37 in 2.86 in (1986)
Month to date precipitation 7.11 8.54  
Year to date precipitation 17.45 23.15  
Wind
Wind Speed 8 mph   
Max Wind Speed 18 mph   
Max Gust Speed 28 mph   
Visibility 4 miles   
Events Rain   

Key: T is trace of precipitation, MM is missing value
Source: NWS Daily Summary
Time(PST)TemperatureDew PointHumidity Pressure Visibility Wind DirectionWind SpeedGust SpeedPrecipitationEvents Conditions
12:00 AM 42.8°F 37.4°F 81% 29.91 in 6.0 miles WNW 4.6 mph - N/A   Haze
12:31 AM 42.8°F 37.4°F 81% 29.93 in 1.8 miles WNW 13.8 mph 21.9 mph 0.02 in Rain Rain
12:53 AM 41.0°F 35.1°F 79% 29.95 in 1.8 miles WNW 10.4 mph 26.5 mph 0.09 in Rain Rain
1:04 AM 41.0°F 35.6°F 81% 29.94 in 2.5 miles Variable 5.8 mph - 0.02 in Rain Light Rain
1:26 AM 41.0°F 37.4°F 87% 29.94 in 5.0 miles WSW 3.5 mph - 0.04 in   Overcast
1:42 AM 42.8°F 37.4°F 81% 29.95 in 1.8 miles WNW 3.5 mph - 0.04 in Rain Light Rain
1:53 AM 42.1°F 37.0°F 82% 29.96 in 4.0 miles NW 9.2 mph 19.6 mph 0.06 in   Haze
2:44 AM 42.8°F 37.4°F 81% 29.98 in 2.0 miles WNW 11.5 mph 20.7 mph 0.02 in Rain Light Rain
2:49 AM 42.8°F 37.4°F 81% 29.98 in 4.0 miles WNW 13.8 mph 19.6 mph 0.02 in Rain Light Rain
2:53 AM 43.0°F 37.0°F 80% 29.99 in 5.0 miles WNW 10.4 mph 19.6 mph 0.02 in   Haze
3:53 AM 44.1°F 36.0°F 73% 30.01 in 4.0 miles Variable 5.8 mph - N/A   Haze
4:15 AM 42.8°F 35.6°F 76% 30.02 in 1.8 miles NNW 12.7 mph 26.5 mph 0.01 in Rain Rain
4:24 AM 42.8°F 35.6°F 76% 30.02 in 3.0 miles NW 9.2 mph 17.3 mph 0.02 in Rain Light Rain
4:53 AM 43.0°F 36.0°F 76% 30.04 in 4.0 miles WNW 6.9 mph - 0.02 in   Haze
5:53 AM 43.0°F 35.1°F 74% 30.07 in 4.0 miles NW 8.1 mph 16.1 mph N/A   Haze
6:53 AM 43.0°F 35.1°F 74% 30.10 in 4.0 miles Variable 5.8 mph - 0.00 in   Haze
7:53 AM 44.1°F 35.1°F 71% 30.14 in 3.0 miles WNW 13.8 mph 20.7 mph N/A   Haze
8:53 AM 45.0°F 33.1°F 63% 30.18 in 3.0 miles Variable 3.5 mph - N/A   Haze
9:53 AM 46.0°F 35.1°F 66% 30.20 in 3.0 miles WNW 8.1 mph - N/A   Haze
10:53 AM 46.9°F 34.0°F 61% 30.24 in 3.0 miles WNW 13.8 mph 19.6 mph N/A   Haze
11:53 AM 46.4°F 33.8°F 62% 30.24 in 3.0 miles NW 13.8 mph 20.7 mph N/A   Haze
12:53 PM 48.9°F 34.0°F 56% 30.26 in 4.0 miles WNW 12.7 mph 25.3 mph N/A   Haze
1:53 PM 48.9°F 33.1°F 54% 30.27 in 4.0 miles WNW 16.1 mph 24.2 mph N/A   Haze
2:53 PM 48.9°F 33.1°F 54% 30.30 in 4.0 miles West 16.1 mph 25.3 mph N/A   Haze
3:53 PM 46.9°F 34.0°F 61% 30.30 in 4.0 miles West 13.8 mph 18.4 mph N/A   Haze
4:42 PM 46.4°F 35.6°F 66% 30.31 in 4.0 miles West 9.2 mph - N/A   Haze
4:53 PM 46.0°F 34.0°F 63% 30.32 in 4.0 miles West 8.1 mph - N/A   Haze
5:16 PM 44.6°F 33.8°F 66% 30.32 in 4.0 miles West 9.2 mph - N/A   Haze
5:53 PM 44.1°F 33.1°F 65% 30.32 in 4.0 miles West 5.8 mph - N/A   Haze
6:53 PM 44.1°F 34.0°F 68% 30.35 in 4.0 miles NW 9.2 mph - N/A   Haze
7:40 PM 42.8°F 35.6°F 76% 30.35 in 3.0 miles Variable 3.5 mph - 0.01 in Rain Light Rain
7:53 PM 42.8°F 37.4°F 81% 30.35 in 4.0 miles West 3.5 mph - N/A Rain Light Rain
8:29 PM 42.8°F 35.6°F 76% 30.35 in 5.0 miles WSW 4.6 mph - 0.00 in   Haze
8:53 PM 42.1°F 36.0°F 79% 30.36 in 5.0 miles Calm Calm - 0.00 in   Haze
9:53 PM 41.0°F 37.0°F 86% 30.37 in 5.0 miles Calm Calm - N/A   Overcast
10:53 PM 41.0°F 37.0°F 86% 30.36 in 4.0 miles Calm Calm - N/A   Overcast
11:53 PM 39.9°F 36.0°F 86% 30.36 in 5.0 miles Calm Calm - N/A   Overcast
Moon Phase
Feb. 23 Feb. 25 Mar. 04 Mar. 11 Mar. 19
Sunrise:07:09 AM (PST) Moon Rise:04:06 PM (PST)2/23
Sunset:05:54 PM (PST) Moon Set:05:41 AM (PST)2/23

Copyright © 2014 The Weather Underground, Inc.